sat.trackr.live / text

‹ back to catalog

STARLINK-2381

NORAD 47800 · 2021-018P

PAYLOAD ACTIVE UNKNOWN

§ Identity

Operator
Country
US
Launch date
2021-03-11
Launch site
AFETR
Launch vehicle
Mass (kg)
RCS (m²)

Purposes: comms

External: N2YO · Heavens-Above · Gunter

§ Orbital elements

Epoch: 2026-09-12T22:42:43.806240Z

Period
94.01 min
Inclination
53.1589°
Eccentricity
0.0001272
Mean motion
15.31699099 rev/d
Perigee alt
469.9 km
Apogee alt
471.6 km
Semi-major
6,848.9 km
B*
7.4437e-5
RAAN
87.6113°
Arg perigee
90.4398°
Mean anomaly
269.6749°
Rev number
30,545

§ Raw data

STARLINK-23811 47800U 21018P   26255.94634035  .00001945  00000+0  74437-4 0  99922 47800  53.1589  87.6113 0001272  90.4398 269.6749 15.31699099305455

JSON: /api/v1/satellites/47800 · /tle

For live sub-satellite position, see the globe view (requires WebGL).

§ Visibility from observer

Set your observer location to see the next 7 days of passes ≥ 10°. The values pass through the URL so the page stays shareable.

No JS? Fill the form by hand. The geolocation button needs JavaScript.